| time (UTC) | temp F | wind direction | speed MPH | gust MPH | rain 1hr in | rain 24hr in | rain mn in | humidity % | barometer mb |
| 20260506061858 | 46 | 0 | 5.0 | 11.0 | 0.00 | 0.00 | 0.00 | 84 | 1013.0 |
| 20260506061356 | 45 | 58 | 5.0 | 9.0 | 0.00 | 0.00 | 0.00 | 85 | 1013.0 |
| 20260506060855 | 45 | 14 | 3.0 | 9.0 | 0.00 | 0.00 | 0.00 | 84 | 1013.0 |
| 20260506060355 | 45 | 0 | 3.0 | 7.0 | 0.00 | 0.00 | 0.00 | 85 | 1013.0 |
| 20260506051352 | 44 | 59 | 4.0 | 12.0 | 0.00 | 0.00 | 0.00 | 86 | 1012.7 |
| 20260506050852 | 44 | 47 | 3.0 | 11.0 | 0.00 | 0.00 | 0.00 | 86 | 1012.7 |
| 20260506050351 | 44 | 25 | 4.0 | 11.0 | 0.00 | 0.00 | 0.00 | 86 | 1012.8 |
| 20260506044852 | 44 | 0 | 4.0 | 10.0 | 0.00 | 0.00 | 0.00 | 86 | 1012.7 |
| 20260506044349 | 44 | 0 | 3.0 | 10.0 | 0.00 | 0.00 | 0.00 | 86 | 1012.7 |
| 20260506043850 | 44 | 344 | 3.0 | 7.0 | 0.00 | 0.00 | 0.00 | 85 | 1012.8 |
| 20260506043350 | 44 | 0 | 1.0 | 6.0 | 0.00 | 0.00 | 0.00 | 85 | 1012.7 |
| 20260506042851 | 44 | 78 | 2.0 | 6.0 | 0.00 | 0.00 | 0.00 | 85 | 1012.9 |
| 20260506042349 | 44 | 3 | 2.0 | 4.0 | 0.00 | 0.00 | 0.00 | 85 | 1012.8 |
| 20260506041854 | 44 | 28 | 1.0 | 6.0 | 0.00 | 0.00 | 0.00 | 85 | 1012.9 |
| 20260506041656 | 45 | 55 | 2.0 | 10.0 | 0.00 | 0.00 | 0.00 | 85 | 1012.9 |
| 20260506040852 | 45 | 32 | 3.0 | 10.0 | 0.00 | 0.00 | 0.00 | 85 | 1012.9 |
| 20260506040349 | 45 | 0 | 1.0 | 5.0 | 0.00 | 0.00 | 0.00 | 85 | 1012.9 |
| 20260506040233 | 45 | 52 | 2.0 | 9.0 | 0.00 | 0.00 | 0.00 | 85 | 1012.8 |
| 20260506035349 | 45 | 56 | 2.0 | 9.0 | 0.00 | 0.00 | 0.00 | 85 | 1012.8 |
| 20260506035033 | 45 | 42 | 4.0 | 6.0 | 0.00 | 0.00 | 0.00 | 85 | 1012.9 |
| 20260506034805 | 45 | 65 | 2.0 | 7.0 | 0.00 | 0.00 | 0.00 | 85 | 1012.8 |
| 20260506033349 | 45 | 49 | 2.0 | 7.0 | 0.00 | 0.00 | 0.00 | 84 | 1012.9 |
| 20260506032848 | 45 | 31 | 2.0 | 6.0 | 0.00 | 0.00 | 0.00 | 85 | 1012.9 |
| 20260506032348 | 45 | 49 | 2.0 | 7.0 | 0.00 | 0.00 | 0.00 | 84 | 1012.8 |
| 20260506031848 | 45 | 14 | 4.0 | 7.0 | 0.00 | 0.00 | 0.00 | 85 | 1012.8 |
| 20260506031348 | 45 | 0 | 4.0 | 9.0 | 0.00 | 0.00 | 0.00 | 85 | 1012.9 |
| 20260506030848 | 45 | 47 | 2.0 | 9.0 | 0.00 | 0.00 | 0.00 | 85 | 1012.9 |
| 20260506030654 | 46 | 56 | 1.0 | 7.0 | 0.00 | 0.00 | 0.00 | 84 | 1013.0 |
| 20260506025848 | 46 | 47 | 2.0 | 5.0 | 0.00 | 0.00 | 0.00 | 84 | 1013.0 |
| 20260506025349 | 46 | 3 | 2.0 | 7.0 | 0.00 | 0.00 | 0.00 | 84 | 1013.0 |
| 20260506024848 | 46 | 41 | 2.0 | 7.0 | 0.00 | 0.00 | 0.00 | 84 | 1013.0 |
| 20260506024348 | 46 | 0 | 3.0 | 6.0 | 0.00 | 0.00 | 0.00 | 84 | 1013.0 |
| 20260506023850 | 46 | 61 | 2.0 | 6.0 | 0.00 | 0.00 | 0.00 | 84 | 1013.0 |
| 20260506023349 | 46 | 45 | 2.0 | 11.0 | 0.00 | 0.00 | 0.00 | 84 | 1013.1 |
| 20260506023316 | 46 | 55 | 3.0 | 7.0 | 0.00 | 0.00 | 0.00 | 84 | 1013.1 |
| 20260506023312 | 46 | 58 | 2.0 | 11.0 | 0.00 | 0.00 | 0.00 | 84 | 1013.1 |
| 20260506021848 | 46 | 56 | 1.0 | 5.0 | 0.00 | 0.00 | 0.00 | 84 | 1013.2 |
| 20260506021350 | 46 | 0 | 3.0 | 9.0 | 0.00 | 0.00 | 0.00 | 84 | 1013.1 |
| 20260506020849 | 46 | 62 | 3.0 | 11.0 | 0.00 | 0.00 | 0.00 | 84 | 1013.1 |
| 20260506020348 | 46 | 25 | 5.0 | 11.0 | 0.00 | 0.00 | 0.00 | 83 | 1013.1 |
| 20260506015850 | 46 | 56 | 5.0 | 12.0 | 0.00 | 0.00 | 0.00 | 84 | 1013.1 |
| 20260506015349 | 46 | 23 | 4.0 | 12.0 | 0.00 | 0.00 | 0.00 | 83 | 1013.1 |
| 20260506015211 | 46 | 79 | 4.0 | 7.0 | 0.00 | 0.00 | 0.00 | 84 | 1013.1 |
| 20260506014348 | 47 | 63 | 4.0 | 10.0 | 0.00 | 0.00 | 0.00 | 84 | 1013.2 |
| 20260506013849 | 47 | 62 | 4.0 | 10.0 | 0.00 | 0.00 | 0.00 | 84 | 1013.1 |
| 20260506013346 | 47 | 65 | 4.0 | 9.0 | 0.00 | 0.00 | 0.00 | 84 | 1013.2 |
| 20260506012849 | 47 | 52 | 3.0 | 10.0 | 0.00 | 0.00 | 0.00 | 84 | 1013.3 |
| 20260506012653 | 47 | 41 | 5.0 | 10.0 | 0.00 | 0.00 | 0.00 | 84 | 1013.2 |
| 20260506011848 | 47 | 353 | 4.0 | 7.0 | 0.00 | 0.00 | 0.00 | 84 | 1013.2 |
| 20260506011351 | 47 | 63 | 4.0 | 7.0 | 0.00 | 0.00 | 0.00 | 85 | 1013.4 |
| 20260506010849 | 47 | 63 | 3.0 | 6.0 | 0.00 | 0.00 | 0.00 | 85 | 1013.3 |
| 20260506010349 | 47 | 23 | 3.0 | 9.0 | 0.00 | 0.00 | 0.00 | 85 | 1013.4 |
| 20260506005848 | 47 | 59 | 3.0 | 9.0 | 0.00 | 0.00 | 0.00 | 85 | 1013.3 |
| 20260506005345 | 48 | 58 | 5.0 | 9.0 | 0.00 | 0.00 | 0.00 | 85 | 1013.2 |
| 20260506004848 | 48 | 34 | 2.0 | 10.0 | 0.00 | 0.00 | 0.00 | 85 | 1013.2 |
| 20260506004347 | 48 | 38 | 5.0 | 10.0 | 0.00 | 0.00 | 0.00 | 84 | 1013.2 |
| 20260506003847 | 48 | 56 | 5.0 | 10.0 | 0.00 | 0.00 | 0.00 | 84 | 1013.2 |
| 20260506003347 | 48 | 11 | 3.0 | 14.0 | 0.00 | 0.00 | 0.00 | 84 | 1013.2 |
| 20260506003216 | 48 | 52 | 5.0 | 14.0 | 0.00 | 0.00 | 0.00 | 83 | 1013.2 |
| 20260506002346 | 48 | 58 | 4.0 | 11.0 | 0.00 | 0.00 | 0.00 | 83 | 1013.2 |
| 20260506001848 | 48 | 39 | 5.0 | 11.0 | 0.00 | 0.00 | 0.00 | 83 | 1013.2 |
| 20260506001345 | 48 | 51 | 6.0 | 11.0 | 0.00 | 0.00 | 0.00 | 84 | 1013.3 |
| 20260506000845 | 48 | 51 | 6.0 | 11.0 | 0.00 | 0.00 | 0.00 | 84 | 1013.3 |
| 20260506000341 | 48 | 71 | 6.0 | 10.0 | 0.00 | 0.00 | 0.00 | 84 | 1013.3 |
| 20260505235839 | 48 | 49 | 5.0 | 9.0 | 0.00 | 0.00 | 0.00 | 84 | 1013.2 |
| 20260505235339 | 48 | 32 | 5.0 | 9.0 | 0.00 | 0.00 | 0.00 | 85 | 1013.3 |
| 20260505234841 | 49 | 56 | 4.0 | 10.0 | 0.00 | 0.00 | 0.00 | 84 | 1013.4 |
| 20260505234339 | 49 | 54 | 3.0 | 10.0 | 0.00 | 0.00 | 0.00 | 85 | 1013.4 |
| 20260505233838 | 49 | 58 | 2.0 | 9.0 | 0.00 | 0.00 | 0.00 | 85 | 1013.4 |
| 20260505233339 | 49 | 62 | 4.0 | 9.0 | 0.00 | 0.00 | 0.00 | 85 | 1013.4 |
| 20260505232838 | 49 | 94 | 4.0 | 7.0 | 0.00 | 0.00 | 0.00 | 85 | 1013.3 |
| 20260505232338 | 49 | 34 | 3.0 | 9.0 | 0.00 | 0.00 | 0.00 | 85 | 1013.3 |
| 20260505231841 | 49 | 59 | 4.0 | 9.0 | 0.00 | 0.00 | 0.00 | 85 | 1013.3 |
| 20260505231645 | 49 | 351 | 3.0 | 11.0 | 0.00 | 0.00 | 0.00 | 85 | 1013.5 |
| 20260505230841 | 49 | 54 | 5.0 | 11.0 | 0.00 | 0.00 | 0.00 | 84 | 1013.5 |
| 20260505230353 | 49 | 44 | 3.0 | 10.0 | 0.00 | 0.00 | 0.00 | 84 | 1013.5 |
| 20260505225837 | 49 | 41 | 6.0 | 10.0 | 0.00 | 0.00 | 0.00 | 84 | 1013.5 |
| 20260505225340 | 49 | 78 | 4.0 | 10.0 | 0.00 | 0.00 | 0.00 | 84 | 1013.4 |
| 20260505225210 | 49 | 61 | 4.0 | 10.0 | 0.00 | 0.00 | 0.00 | 84 | 1013.4 |
| 20260505224337 | 49 | 44 | 5.0 | 11.0 | 0.00 | 0.00 | 0.00 | 84 | 1013.5 |
| 20260505223835 | 49 | 49 | 5.0 | 11.0 | 0.00 | 0.00 | 0.00 | 84 | 1013.4 |
| 20260505223649 | 49 | 48 | 5.0 | 11.0 | 0.00 | 0.00 | 0.00 | 84 | 1013.4 |
| 20260505222834 | 49 | 11 | 4.0 | 10.0 | 0.00 | 0.00 | 0.00 | 83 | 1013.5 |
| 20260505222335 | 49 | 48 | 5.0 | 13.0 | 0.00 | 0.00 | 0.00 | 83 | 1013.5 |
| 20260505221836 | 49 | 18 | 6.0 | 13.0 | 0.00 | 0.00 | 0.00 | 83 | 1013.4 |
| 20260505221335 | 49 | 44 | 7.0 | 14.0 | 0.00 | 0.00 | 0.00 | 82 | 1013.5 |
| 20260505220833 | 50 | 63 | 5.0 | 14.0 | 0.00 | 0.00 | 0.00 | 82 | 1013.5 |
| 20260505220651 | 50 | 39 | 6.0 | 12.0 | 0.00 | 0.00 | 0.00 | 82 | 1013.5 |
| 20260505220231 | 50 | 58 | 4.0 | 12.0 | 0.00 | 0.00 | 0.00 | 82 | 1013.5 |
| 20260505215331 | 50 | 56 | 6.0 | 13.0 | 0.00 | 0.00 | 0.00 | 81 | 1013.4 |
| 20260505214833 | 50 | 0 | 6.0 | 13.0 | 0.00 | 0.00 | 0.00 | 81 | 1013.3 |
| 20260505214333 | 50 | 47 | 5.0 | 10.0 | 0.00 | 0.00 | 0.00 | 81 | 1013.3 |
| 20260505213834 | 50 | 55 | 6.0 | 13.0 | 0.00 | 0.00 | 0.00 | 81 | 1013.3 |
| 20260505213332 | 50 | 58 | 6.0 | 13.0 | 0.00 | 0.00 | 0.00 | 81 | 1013.3 |
| 20260505212833 | 50 | 54 | 4.0 | 13.0 | 0.00 | 0.00 | 0.00 | 80 | 1013.3 |
| 20260505212331 | 50 | 354 | 7.0 | 13.0 | 0.00 | 0.00 | 0.00 | 80 | 1013.3 |
| 20260505211830 | 51 | 52 | 7.0 | 13.0 | 0.00 | 0.00 | 0.00 | 80 | 1013.3 |
| 20260505211329 | 51 | 32 | 5.0 | 12.0 | 0.00 | 0.00 | 0.00 | 80 | 1013.2 |
| 20260505210830 | 51 | 49 | 7.0 | 12.0 | 0.00 | 0.00 | 0.00 | 80 | 1013.3 |
| 20260505210330 | 51 | 54 | 5.0 | 13.0 | 0.00 | 0.00 | 0.00 | 80 | 1013.1 |
| 20260505205831 | 51 | 54 | 7.0 | 13.0 | 0.00 | 0.00 | 0.00 | 79 | 1013.2 |
| 20260505205330 | 51 | 38 | 6.0 | 13.0 | 0.00 | 0.00 | 0.00 | 79 | 1013.2 |
| 20260505204948 | 51 | 32 | 6.0 | 14.0 | 0.00 | 0.00 | 0.00 | 78 | 1013.0 |
| 20260505204919 | 51 | 62 | 7.0 | 13.0 | 0.00 | 0.00 | 0.00 | 79 | 1013.1 |
| 20260505203826 | 52 | 47 | 10.0 | 14.0 | 0.00 | 0.00 | 0.00 | 78 | 1013.0 |
| 20260505203326 | 52 | 62 | 8.0 | 14.0 | 0.00 | 0.00 | 0.00 | 78 | 1013.0 |
| 20260505202826 | 52 | 62 | 5.0 | 15.0 | 0.00 | 0.00 | 0.00 | 78 | 1013.0 |
| 20260505202324 | 52 | 79 | 6.0 | 15.0 | 0.00 | 0.00 | 0.00 | 77 | 1012.9 |
| 20260505201824 | 53 | 59 | 8.0 | 15.0 | 0.00 | 0.00 | 0.00 | 77 | 1012.9 |
| 20260505201645 | 53 | 31 | 4.0 | 14.0 | 0.00 | 0.00 | 0.00 | 76 | 1012.9 |
| 20260505200826 | 53 | 55 | 6.0 | 14.0 | 0.00 | 0.00 | 0.00 | 76 | 1012.9 |
| 20260505200322 | 53 | 54 | 5.0 | 12.0 | 0.00 | 0.00 | 0.00 | 76 | 1012.8 |
| 20260505195828 | 53 | 56 | 6.0 | 11.0 | 0.00 | 0.00 | 0.00 | 75 | 1012.7 |
| 20260505195323 | 53 | 65 | 3.0 | 10.0 | 0.00 | 0.00 | 0.00 | 75 | 1012.5 |
| 20260505194822 | 53 | 30 | 4.0 | 9.0 | 0.00 | 0.00 | 0.00 | 75 | 1012.6 |
| 20260505194323 | 53 | 39 | 4.0 | 12.0 | 0.00 | 0.00 | 0.00 | 74 | 1012.5 |
| 20260505193824 | 53 | 39 | 5.0 | 14.0 | 0.00 | 0.00 | 0.00 | 74 | 1012.4 |
| 20260505193522 | 54 | 63 | 5.0 | 12.0 | 0.00 | 0.00 | 0.00 | 73 | 1012.3 |
| 20260505193435 | 54 | 55 | 4.0 | 14.0 | 0.00 | 0.00 | 0.00 | 73 | 1012.4 |
| 20260505192321 | 54 | 41 | 7.0 | 14.0 | 0.00 | 0.00 | 0.00 | 73 | 1012.2 |
| 20260505191820 | 54 | 44 | 8.0 | 14.0 | 0.00 | 0.00 | 0.00 | 73 | 1012.2 |
| 20260505191322 | 54 | 41 | 7.0 | 15.0 | 0.00 | 0.00 | 0.00 | 73 | 1012.1 |
| 20260505190823 | 54 | 42 | 7.0 | 15.0 | 0.00 | 0.00 | 0.00 | 74 | 1012.1 |
| 20260505190320 | 54 | 49 | 7.0 | 13.0 | 0.00 | 0.00 | 0.00 | 74 | 1012.0 |
| 20260505185822 | 54 | 56 | 6.0 | 14.0 | 0.00 | 0.00 | 0.00 | 74 | 1012.0 |
| 20260505185320 | 55 | 61 | 6.0 | 14.0 | 0.00 | 0.00 | 0.00 | 74 | 1012.0 |
| 20260505184820 | 55 | 62 | 7.0 | 13.0 | 0.00 | 0.00 | 0.00 | 74 | 1012.0 |
| 20260505184320 | 55 | 42 | 6.0 | 13.0 | 0.00 | 0.00 | 0.00 | 74 | 1012.0 |
| 20260505183826 | 55 | 51 | 7.0 | 14.0 | 0.00 | 0.00 | 0.00 | 75 | 1011.9 |
| 20260505183326 | 55 | 56 | 9.0 | 14.0 | 0.00 | 0.00 | 0.00 | 74 | 1011.9 |
| 20260505182826 | 55 | 58 | 6.0 | 11.0 | 0.00 | 0.00 | 0.00 | 75 | 1011.8 |
| 20260505182326 | 56 | 56 | 7.0 | 13.0 | 0.00 | 0.00 | 0.00 | 75 | 1011.8 |
| 20260505181818 | 56 | 34 | 5.0 | 13.0 | 0.00 | 0.00 | 0.00 | 74 | 1011.8 |
| 20260505181319 | 56 | 59 | 6.0 | 12.0 | 0.00 | 0.00 | 0.00 | 74 | 1011.7 |
| 20260505181202 | 56 | 71 | 5.0 | 12.0 | 0.00 | 0.00 | 0.00 | 74 | 1011.8 |
| 20260505180313 | 56 | 65 | 6.0 | 10.0 | 0.00 | 0.00 | 0.00 | 74 | 1011.7 |
| 20260505175811 | 56 | 59 | 3.0 | 9.0 | 0.00 | 0.00 | 0.00 | 74 | 1011.8 |
| 20260505175306 | 57 | 51 | 5.0 | 9.0 | 0.00 | 0.00 | 0.00 | 73 | 1011.7 |
| 20260505174809 | 57 | 51 | 3.0 | 9.0 | 0.00 | 0.00 | 0.00 | 73 | 1011.7 |
| 20260505174303 | 57 | 48 | 4.0 | 9.0 | 0.00 | 0.00 | 0.00 | 73 | 1011.7 |
| 20260505173802 | 57 | 51 | 3.0 | 7.0 | 0.00 | 0.00 | 0.00 | 71 | 1011.8 |
| 20260505173300 | 57 | 38 | 4.0 | 7.0 | 0.00 | 0.00 | 0.00 | 71 | 1011.7 |
| 20260505173159 | 57 | 65 | 3.0 | 5.0 | 0.00 | 0.00 | 0.00 | 70 | 1011.7 |
| 20260505172308 | 58 | 27 | 2.0 | 4.0 | 0.00 | 0.00 | 0.00 | 70 | 1011.6 |
| 20260505171804 | 58 | 45 | 2.0 | 2.0 | 0.00 | 0.00 | 0.00 | 70 | 1011.6 |
| 20260505171259 | 58 | 27 | 0.0 | 2.0 | 0.00 | 0.00 | 0.00 | 68 | 1011.7 |
| 20260505170758 | 58 | 28 | 2.0 | 2.0 | 0.00 | 0.00 | 0.00 | 68 | 1011.7 |
| 20260505170309 | 0 | 13 | 0.0 | 1.0 | 0.00 | 0.00 | 0.00 | 1011.7 | |
| 20260505165757 | 58 | 68 | 1.0 | 2.0 | 0.00 | 0.00 | 0.00 | 68 | 1011.7 |
| 20260505165246 | 58 | 68 | 1.0 | 4.0 | 0.00 | 0.00 | 0.00 | 68 | 1011.7 |
| 20260505164743 | 58 | 73 | 2.0 | 4.0 | 0.00 | 0.00 | 0.00 | 68 | 1011.7 |
| 20260505164539 | 58 | 54 | 2.0 | 6.0 | 0.00 | 0.00 | 0.00 | 68 | 1011.7 |
| 20260505163742 | 59 | 52 | 4.0 | 6.0 | 0.00 | 0.00 | 0.00 | 67 | 1011.6 |
| 20260505163242 | 59 | 45 | 3.0 | 6.0 | 0.00 | 0.00 | 0.00 | 68 | 1011.7 |
| 20260505162739 | 59 | 62 | 4.0 | 7.0 | 0.00 | 0.00 | 0.00 | 68 | 1011.8 |
| 20260505162241 | 59 | 35 | 4.0 | 7.0 | 0.00 | 0.00 | 0.00 | 67 | 1011.7 |
| 20260505161739 | 59 | 48 | 4.0 | 7.0 | 0.00 | 0.00 | 0.00 | 67 | 1011.6 |
| 20260505161242 | 59 | 51 | 2.0 | 6.0 | 0.00 | 0.00 | 0.00 | 67 | 1011.6 |
| 20260505161054 | 60 | 59 | 4.0 | 5.0 | 0.00 | 0.00 | 0.00 | 67 | 1011.6 |
| 20260505160239 | 60 | 28 | 4.0 | 5.0 | 0.00 | 0.00 | 0.00 | 68 | 1011.6 |
| 20260505153234 | 60 | 27 | 3.0 | 4.0 | 0.00 | 0.00 | 0.00 | 65 | 1011.7 |
| 20260505153101 | 60 | 32 | 1.0 | 3.0 | 0.00 | 0.00 | 0.00 | 65 | 1011.8 |
| 20260505152232 | 60 | 48 | 2.0 | 4.0 | 0.00 | 0.00 | 0.00 | 65 | 1011.8 |
| 20260505151732 | 0 | 42 | 1.0 | 4.0 | 0.00 | 0.00 | 0.00 | 1011.8 | |
| 20260505151535 | 0 | 354 | 2.0 | 3.0 | 0.00 | 0.00 | 0.00 | 1011.8 | |
| 20260505150739 | 61 | 354 | 2.0 | 3.0 | 0.00 | 0.00 | 0.00 | 62 | 1011.8 |
| 20260505150249 | 61 | 18 | 2.0 | 4.0 | 0.00 | 0.00 | 0.00 | 62 | 1011.8 |
| 20260505140247 | 63 | 87 | 2.0 | 3.0 | 0.00 | 0.00 | 0.00 | 63 | 1012.1 |
| 20260505140235 | 63 | 87 | 1.0 | 3.0 | 0.00 | 0.00 | 0.00 | 63 | 1012.0 |
| 20260505130229 | 0 | 58 | 2.0 | 7.0 | 0.00 | 0.00 | 0.00 | 1012.3 | |
| 20260505124730 | 0 | 113 | 5.0 | 6.0 | 0.00 | 0.00 | 0.00 | 1012.3 | |
| 20260505124533 | 65 | 0.0 | 0.0 | 0.00 | 0.00 | 0.00 | 63 | 1012.3 | |
| 20260505123729 | 65 | 0.0 | 0.0 | 0.00 | 0.00 | 0.00 | 63 | 1012.3 | |
| 20260505123230 | 64 | 80 | 1.0 | 1.0 | 0.00 | 0.00 | 0.00 | 67 | 1012.4 |
| 20260505122731 | 64 | 80 | 1.0 | 2.0 | 0.00 | 0.00 | 0.00 | 67 | 1012.4 |
| 20260505122228 | 63 | 104 | 2.0 | 7.0 | 0.00 | 0.00 | 0.00 | 67 | 1012.4 |
| 20260505121729 | 62 | 109 | 4.0 | 7.0 | 0.00 | 0.00 | 0.00 | 67 | 1012.5 |
| 20260505121225 | 62 | 65 | 3.0 | 6.0 | 0.00 | 0.00 | 0.00 | 69 | 1012.4 |
| 20260505121045 | 62 | 51 | 6.0 | 6.0 | 0.00 | 0.00 | 0.00 | 69 | 1012.3 |
| 20260505120418 | 61 | 32 | 2.0 | 3.0 | 0.00 | 0.00 | 0.00 | 68 | 1012.3 |
| 20260505120343 | 62 | 54 | 3.0 | 4.0 | 0.00 | 0.00 | 0.00 | 68 | 1012.3 |
| 20260505115224 | 0 | 102 | 3.0 | 3.0 | 0.00 | 0.00 | 0.00 | 1012.3 | |
| 20260505114716 | 62 | 102 | 3.0 | 3.0 | 0.00 | 0.00 | 0.00 | 68 | 1012.4 |
| 20260505114518 | 0 | 32 | 2.0 | 2.0 | 0.00 | 0.00 | 0.00 | 1012.5 | |
| 20260505113715 | 0 | 353 | 2.0 | 3.0 | 0.00 | 0.00 | 0.00 | 1012.5 | |
| 20260505113213 | 61 | 355 | 3.0 | 63.0 | 0.00 | 0.00 | 0.00 | 71 | 1012.5 |
| 20260505112712 | 61 | 37 | 6.0 | 63.0 | 0.00 | 0.00 | 0.00 | 71 | 1012.5 |
| 20260505112212 | 0 | 78 | 3.0 | 4.0 | 0.00 | 0.00 | 0.00 | 1012.6 | |
| 20260505112056 | 61 | 321 | 4.0 | 4.0 | 0.00 | 0.00 | 0.00 | 71 | 1012.6 |
| 20260505111206 | 61 | 47 | 5.0 | 5.0 | 0.00 | 0.00 | 0.00 | 71 | 1012.6 |
| 20260505110706 | 61 | 47 | 5.0 | 5.0 | 0.00 | 0.00 | 0.00 | 71 | 1012.6 |
| 20260505110202 | 61 | 337 | 5.0 | 6.0 | 0.00 | 0.00 | 0.00 | 71 | 1012.8 |
| 20260505102203 | 60 | 71 | 3.0 | 3.0 | 0.00 | 0.00 | 0.00 | 69 | 1012.9 |
| 20260505101701 | 60 | 35 | 4.0 | 5.0 | 0.00 | 0.00 | 0.00 | 77 | 1012.9 |
| 20260505101201 | 60 | 86 | 4.0 | 5.0 | 0.00 | 0.00 | 0.00 | 77 | 1012.9 |
| 20260505100701 | 60 | 79 | 5.0 | 5.0 | 0.00 | 0.00 | 0.00 | 77 | 1012.9 |
| 20260505100201 | 60 | 35 | 5.0 | 5.0 | 0.00 | 0.00 | 0.00 | 77 | 1012.9 |
| 20260505095707 | 0 | 90 | 4.0 | 4.0 | 0.00 | 0.00 | 0.00 | 1013.0 | |
| 20260505095206 | 59 | 35 | 3.0 | 3.0 | 0.00 | 0.00 | 0.00 | 77 | 1013.0 |
| 20260505094949 | 59 | 4 | 2.0 | 2.0 | 0.00 | 0.00 | 0.00 | 77 | 1013.0 |
| 20260505094448 | 0 | 51 | 2.0 | 2.0 | 0.00 | 0.00 | 0.00 | 1013.1 | |
| 20260505093658 | 0 | 0.0 | 0.0 | 0.00 | 0.00 | 0.00 | 1013.2 | ||
| 20260505093159 | 0 | 0.0 | 0.0 | 0.00 | 0.00 | 0.00 | 1013.3 | ||
| 20260505092701 | 0 | 0.0 | 0.0 | 0.00 | 0.00 | 0.00 | 1013.2 | ||
| 20260505092156 | 0 | 0.0 | 0.0 | 0.00 | 0.00 | 0.00 | 1013.1 | ||
| 20260505091947 | 57 | 0.0 | 0.0 | 0.00 | 0.00 | 0.00 | 82 | 1013.2 | |
| 20260505091157 | 57 | 0.0 | 0.0 | 0.00 | 0.00 | 0.00 | 82 | 1013.3 | |
| 20260505090654 | 56 | 0.0 | 0.0 | 0.00 | 0.00 | 0.00 | 86 | 1013.3 | |
| 20260505090143 | 56 | 0.0 | 0.0 | 0.00 | 0.00 | 0.00 | 86 | 1013.2 | |
| 20260505085642 | 56 | 0.0 | 0.0 | 0.00 | 0.00 | 0.00 | 86 | 1013.4 | |
| 20260505085143 | 55 | 0.0 | 0.0 | 0.00 | 0.00 | 0.00 | 86 | 1013.3 | |
| 20260505084644 | 55 | 0.0 | 0.0 | 0.00 | 0.00 | 0.00 | 88 | 1013.3 | |
| 20260505084143 | 53 | 0.0 | 0.0 | 0.00 | 0.00 | 0.00 | 90 | 1013.3 | |
| 20260505083644 | 53 | 0.0 | 0.0 | 0.00 | 0.00 | 0.00 | 90 | 1013.3 | |
| 20260505083143 | 52 | 0.0 | 0.0 | 0.00 | 0.00 | 0.00 | 90 | 1013.3 | |
| 20260505082642 | 52 | 0.0 | 0.0 | 0.00 | 0.00 | 0.00 | 90 | 1013.2 | |
| 20260505082141 | 52 | 0.0 | 0.0 | 0.00 | 0.00 | 0.00 | 90 | 1013.2 | |
| 20260505081641 | 52 | 0.0 | 0.0 | 0.00 | 0.00 | 0.00 | 90 | 1013.4 | |
| 20260505081139 | 52 | 0.0 | 0.0 | 0.00 | 0.00 | 0.00 | 90 | 1013.4 | |
| 20260505080923 | 52 | 0.0 | 0.0 | 0.00 | 0.00 | 0.00 | 91 | 1013.4 | |
| 20260505080138 | 52 | 0.0 | 0.0 | 0.00 | 0.00 | 0.00 | 91 | 1013.3 | |
| 20260505075632 | 51 | 0.0 | 0.0 | 0.00 | 0.00 | 0.00 | 91 | 1013.3 | |
| 20260505075136 | 51 | 0.0 | 0.0 | 0.00 | 0.00 | 0.00 | 91 | 1013.3 | |
| 20260505074914 | 51 | 0.0 | 0.0 | 0.00 | 0.00 | 0.00 | 91 | 1013.3 | |
| 20260505074416 | 51 | 0.0 | 0.0 | 0.00 | 0.00 | 0.00 | 92 | 1013.3 | |
| 20260505073631 | 51 | 0.0 | 0.0 | 0.00 | 0.00 | 0.00 | 92 | 1013.3 | |
| 20260505073131 | 51 | 0.0 | 0.0 | 0.00 | 0.00 | 0.00 | 92 | 1013.3 | |
| 20260505072634 | 51 | 0.0 | 0.0 | 0.00 | 0.00 | 0.00 | 92 | 1013.4 | |
| 20260505072130 | 51 | 0.0 | 0.0 | 0.00 | 0.00 | 0.00 | 92 | 1013.4 | |
| 20260505071632 | 50 | 0.0 | 0.0 | 0.00 | 0.00 | 0.00 | 92 | 1013.4 | |
| 20260505071133 | 50 | 0.0 | 0.0 | 0.00 | 0.00 | 0.00 | 92 | 1013.4 | |
| 20260505070913 | 50 | 0.0 | 0.0 | 0.00 | 0.00 | 0.00 | 92 | 1013.4 | |
| 20260505070127 | 50 | 0.0 | 0.0 | 0.00 | 0.00 | 0.00 | 92 | 1013.4 | |
| 20260505065630 | 50 | 0.0 | 0.0 | 0.00 | 0.00 | 0.00 | 92 | 1013.4 | |
| 20260505065127 | 50 | 0.0 | 0.0 | 0.00 | 0.00 | 0.00 | 92 | 1013.4 | |
| 20260505064629 | 50 | 0.0 | 0.0 | 0.00 | 0.00 | 0.00 | 92 | 1013.4 | |
| 20260505064128 | 50 | 0.0 | 0.0 | 0.00 | 0.00 | 0.00 | 92 | 1013.5 | |
| 20260505063629 | 50 | 0.0 | 0.0 | 0.00 | 0.00 | 0.00 | 92 | 1013.4 | |
| 20260505063126 | 50 | 0.0 | 0.0 | 0.00 | 0.00 | 0.00 | 92 | 1013.4 | |
| 20260505062626 | 50 | 0.0 | 0.0 | 0.00 | 0.00 | 0.00 | 92 | 1013.5 | |
| 20260505062127 | 50 | 0.0 | 0.0 | 0.00 | 0.00 | 0.00 | 92 | 1013.5 |